TimeCST,TemperatureF,Dew PointF,Humidity,Sea Level PressureIn,VisibilityMPH,Wind Direction,Wind SpeedMPH,Gust SpeedMPH,PrecipitationIn,Events,Conditions,WindDirDegrees,DateUTC
12:14 AM,24.8,17.6,74,29.48,10.0,WNW,11.5,-,N/A,,Mostly Cloudy,300,2014-01-13 06:14:00
12:33 AM,23.0,15.8,74,29.48,10.0,West,9.2,21.9,N/A,,Mostly Cloudy,280,2014-01-13 06:33:00
12:54 AM,23.0,15.8,74,29.48,10.0,WNW,9.2,-,N/A,,Overcast,290,2014-01-13 06:54:00
1:14 AM,23.0,15.8,74,29.49,10.0,WNW,9.2,-,N/A,,Overcast,300,2014-01-13 07:14:00
1:34 AM,23.0,15.8,74,29.49,10.0,WNW,11.5,18.4,N/A,,Overcast,290,2014-01-13 07:34:00
1:54 AM,23.0,15.8,74,29.49,10.0,West,10.4,-,N/A,,Overcast,280,2014-01-13 07:54:00
2:14 AM,23.0,15.8,74,29.49,10.0,West,5.8,-,N/A,,Overcast,270,2014-01-13 08:14:00
2:34 AM,21.2,15.8,80,29.50,10.0,West,5.8,-,N/A,Snow,Light Snow,270,2014-01-13 08:34:00
2:54 AM,21.2,15.8,80,29.50,10.0,WSW,6.9,-,N/A,Snow,Light Snow,250,2014-01-13 08:54:00
3:14 AM,21.2,15.8,80,29.50,10.0,WSW,5.8,-,N/A,Snow,Light Snow,240,2014-01-13 09:14:00
3:34 AM,21.2,17.6,86,29.50,5.0,WSW,9.2,-,N/A,Snow,Light Snow,250,2014-01-13 09:34:00
3:54 AM,21.2,17.6,86,29.51,10.0,WSW,9.2,-,N/A,Snow,Light Snow,250,2014-01-13 09:54:00
4:14 AM,21.2,17.6,86,29.50,10.0,WSW,6.9,-,N/A,Snow,Light Snow,250,2014-01-13 10:14:00
4:34 AM,21.2,17.6,86,29.50,10.0,West,5.8,-,N/A,Snow,Light Snow,270,2014-01-13 10:34:00
4:54 AM,21.2,14.0,74,29.50,10.0,West,11.5,17.3,N/A,,Overcast,280,2014-01-13 10:54:00
5:14 AM,19.4,12.2,74,29.51,10.0,West,15.0,20.7,N/A,,Scattered Clouds,280,2014-01-13 11:14:00
5:34 AM,19.4,12.2,74,29.51,10.0,WNW,16.1,-,N/A,,Mostly Cloudy,290,2014-01-13 11:34:00
5:54 AM,17.6,10.4,73,29.52,10.0,WNW,10.4,-,N/A,,Mostly Cloudy,290,2014-01-13 11:54:00
6:14 AM,17.6,10.4,73,29.52,10.0,WNW,9.2,-,N/A,,Overcast,290,2014-01-13 12:14:00
6:34 AM,17.6,10.4,73,29.53,10.0,WNW,12.7,17.3,N/A,,Overcast,290,2014-01-13 12:34:00
6:54 AM,15.8,10.4,79,29.54,10.0,West,10.4,17.3,N/A,,Overcast,280,2014-01-13 12:54:00
7:14 AM,15.8,10.4,79,29.54,10.0,WNW,9.2,-,N/A,,Overcast,290,2014-01-13 13:14:00
7:34 AM,15.8,10.4,79,29.55,7.0,NW,9.2,-,N/A,Snow,Light Snow,310,2014-01-13 13:34:00
7:54 AM,14.0,10.4,86,29.55,3.0,NW,6.9,-,N/A,Snow,Light Snow,310,2014-01-13 13:54:00
8:14 AM,14.0,8.6,79,29.56,2.5,WNW,5.8,-,N/A,Snow,Light Snow,300,2014-01-13 14:14:00
8:34 AM,12.2,8.6,85,29.56,1.8,WNW,5.8,-,N/A,Snow,Light Snow,300,2014-01-13 14:34:00
8:54 AM,12.2,8.6,85,29.57,1.2,WNW,5.8,-,N/A,Snow,Light Snow,290,2014-01-13 14:54:00
9:14 AM,12.2,8.6,85,29.57,1.2,WNW,6.9,-,N/A,Snow,Light Snow,290,2014-01-13 15:14:00
9:34 AM,12.2,6.8,79,29.58,1.8,NW,9.2,-,N/A,Snow,Light Snow,310,2014-01-13 15:34:00
9:54 AM,10.4,5.0,79,29.58,2.5,NW,5.8,-,N/A,Snow,Light Snow,310,2014-01-13 15:54:00
10:14 AM,10.4,5.0,79,29.59,10.0,WNW,4.6,-,N/A,Snow,Light Snow,300,2014-01-13 16:14:00
10:34 AM,10.4,5.0,79,29.59,5.0,NW,5.8,-,N/A,Snow,Light Snow,310,2014-01-13 16:34:00
10:54 AM,12.2,5.0,73,29.59,10.0,West,5.8,-,N/A,,Mostly Cloudy,270,2014-01-13 16:54:00
11:14 AM,12.2,6.8,79,29.59,4.0,WSW,6.9,-,N/A,Snow,Light Snow,250,2014-01-13 17:14:00
11:34 AM,12.2,6.8,79,29.59,2.5,WSW,6.9,-,N/A,Snow,Light Snow,240,2014-01-13 17:34:00
11:54 AM,12.2,6.8,79,29.58,4.0,West,6.9,-,N/A,Snow,Light Snow,260,2014-01-13 17:54:00
12:14 PM,12.2,5.0,73,29.58,7.0,SW,8.1,-,N/A,Snow,Light Snow,230,2014-01-13 18:14:00
12:34 PM,12.2,5.0,73,29.58,10.0,SW,8.1,-,N/A,,Scattered Clouds,230,2014-01-13 18:34:00
12:54 PM,12.2,6.8,79,29.57,10.0,WSW,5.8,-,N/A,,Clear,250,2014-01-13 18:54:00
1:13 PM,12.2,6.8,79,29.57,10.0,SW,4.6,-,N/A,,Clear,220,2014-01-13 19:13:00
1:34 PM,12.2,5.0,73,29.57,10.0,SW,8.1,-,N/A,,Clear,220,2014-01-13 19:34:00
1:54 PM,12.2,5.0,73,29.57,10.0,SW,9.2,-,N/A,,Clear,230,2014-01-13 19:54:00
2:14 PM,12.2,5.0,73,29.56,10.0,SW,8.1,-,N/A,,Clear,230,2014-01-13 20:14:00
2:34 PM,12.2,5.0,73,29.56,10.0,SW,5.8,-,N/A,,Clear,220,2014-01-13 20:34:00
2:44 PM,12.2,5.0,73,29.56,10.0,SW,6.9,-,N/A,,Clear,220,2014-01-13 20:44:00
3:01 PM,12.2,5.0,73,29.56,10.0,SW,5.8,-,N/A,,Clear,230,2014-01-13 21:01:00
3:21 PM,12.2,5.0,73,29.56,10.0,SW,6.9,-,N/A,,Clear,230,2014-01-13 21:21:00
3:41 PM,12.2,3.2,67,29.56,10.0,SW,4.6,-,N/A,,Clear,230,2014-01-13 21:41:00
4:11 PM,12.2,3.2,67,29.56,10.0,SW,8.1,-,N/A,,Clear,230,2014-01-13 22:11:00
4:14 PM,10.4,3.2,73,29.56,10.0,SW,6.9,-,N/A,,Clear,220,2014-01-13 22:14:00
4:34 PM,10.4,3.2,73,29.58,10.0,SW,6.9,-,N/A,,Clear,220,2014-01-13 22:34:00
4:54 PM,6.8,1.4,79,29.59,10.0,SSW,6.9,-,N/A,,Clear,210,2014-01-13 22:54:00
5:14 PM,6.8,1.4,79,29.59,10.0,SW,5.8,-,N/A,,Clear,220,2014-01-13 23:14:00
5:33 PM,8.6,3.2,79,29.59,10.0,SW,5.8,-,N/A,,Clear,230,2014-01-13 23:33:00
5:54 PM,-0.4,-5.8,78,29.59,10.0,SSW,3.5,-,N/A,,Clear,200,2014-01-13 23:54:00
6:13 PM,3.2,-0.4,85,29.59,10.0,Calm,Calm,-,N/A,,Clear,0,2014-01-14 00:13:00
6:34 PM,6.8,3.2,85,29.59,10.0,WSW,4.6,-,N/A,,Clear,250,2014-01-14 00:34:00
6:54 PM,8.6,3.2,79,29.59,10.0,WNW,3.5,-,N/A,,Clear,290,2014-01-14 00:54:00
7:14 PM,6.8,1.4,79,29.59,10.0,Calm,Calm,-,N/A,,Clear,0,2014-01-14 01:14:00
7:34 PM,5.0,1.4,85,29.59,10.0,Calm,Calm,-,N/A,,Clear,0,2014-01-14 01:34:00
7:54 PM,3.2,-0.4,85,29.59,10.0,Calm,Calm,-,N/A,,Clear,0,2014-01-14 01:54:00
8:14 PM,3.2,-0.4,85,29.58,10.0,Calm,Calm,-,N/A,,Clear,0,2014-01-14 02:14:00
8:34 PM,3.2,-0.4,85,29.58,10.0,Calm,Calm,-,N/A,,Clear,0,2014-01-14 02:34:00
8:54 PM,3.2,-0.4,85,29.59,10.0,Calm,Calm,-,N/A,,Clear,0,2014-01-14 02:54:00
9:13 PM,1.4,-2.2,85,29.59,10.0,Calm,Calm,-,N/A,,Clear,0,2014-01-14 03:13:00
9:34 PM,3.2,-0.4,85,29.59,10.0,Calm,Calm,-,N/A,,Clear,0,2014-01-14 03:34:00
9:54 PM,3.2,-0.4,85,29.59,10.0,NNW,3.5,-,N/A,,Clear,340,2014-01-14 03:54:00
10:14 PM,3.2,-0.4,85,29.61,10.0,NNW,4.6,-,N/A,,Clear,340,2014-01-14 04:14:00
10:34 PM,3.2,-0.4,85,29.62,10.0,North,3.5,-,N/A,,Clear,360,2014-01-14 04:34:00
10:54 PM,6.8,1.4,79,29.62,10.0,North,5.8,-,N/A,,Clear,10,2014-01-14 04:54:00
11:14 PM,6.8,1.4,79,29.63,10.0,NNE,5.8,-,N/A,,Clear,20,2014-01-14 05:14:00
11:34 PM,6.8,1.4,79,29.64,10.0,NNE,5.8,-,N/A,,Clear,20,2014-01-14 05:34:00
11:54 PM,6.8,1.4,79,29.64,10.0,NNE,4.6,-,N/A,,Clear,20,2014-01-14 05:54:00